Location: Nag� el Ma?a??a
(24.0667°N, 32.8833°E)
Time: 17:06:49
(UTC+00:00)

CZ-4C R/B - Pass Details

Date: 25 September 2021
Orbit: 406 x 482 km, 97.7° (Epoch: 16 October)

Event Time Altitude Azimuth Distance (km) Brightness Sun altitude
Rises 03:14:49 0° 165° (SSE) 2,355 6.7 -6.2°
Reaches altitude 10° 03:16:47 10° 163° (SSE) 1,505 5.8 -5.7°
Maximum altitude 03:19:59 75° 78° (ENE) 450 3.1 -5.0°
Drops below altitude 10° 03:23:18 10° 353° (N) 1,554 5.6 -4.2°
Sets 03:25:21 0° 351° (N) 2,440 6.5 -3.8°
